Regional Weather Roundup
Issued by NWS Bismarck, ND

Current Version | Previous Version | Text Only | Print | Product List | Glossary On
Versions: 1 2 3 4 5 6 7 8 9 10 11 12 13 14 15 16 17 18 19 20 21 22 23 24 25 26 27 28 29 30 31 32 33 34 35 36 37 38 39 40 41 42 43 44 45 46 47 48 49 50
000
ASUS43 KBIS 282120
RWRBIS

NWR BROADCAST TEXT
NATIONAL WEATHER SERVICE BISMARCK ND
400 PM CDT MON JUL 28 2014

NOTE: "FAIR" INDICATES FEW OR NO CLOUDS BELOW 12,000 FEET WITH NO
SIGNIFICANT WEATHER AND/OR OBSTRUCTIONS TO VISIBILITY.


CITY           SKY/WX    TMP DP  RH WIND       PRES   REMARKS
WILLISTON      MOSUNNY   80  50  34 VRB6      30.25F
MINOT          MOSUNNY   76  54  46 N8        30.27F
MINOT AFB      MOSUNNY   73  55  53 VRB1      30.26F
BISMARCK       MOSUNNY   75  48  38 NE6       30.29F
DICKINSON      MOSUNNY   78  51  38 VRB5      30.27F
GARRISON         N/A     73  56  54 VRB6      30.28F
HETTINGER ARPT SUNNY     78  50  37 CALM      30.30F
JAMESTOWN      CLOUDY    71  50  47 N7        30.27F
CARRINGTON     CLOUDY    68  55  64 N6        30.29S
CROSBY         FAIR      75  55  50 N5        30.27F
HARVEY         MOCLDY    70  54  56 N5        30.28F
HAZEN          FAIR      73  48  40 CALM      30.29F
LINTON         FAIR      73  50  43 N5        30.28F
MANDAN         MOCLDY    73  50  43 N5        30.29F
RUGBY          FAIR      72  54  53 CALM      30.27F
STANLEY        FAIR      73  54  49 CALM      30.28F
TIOGA          MOCLDY    75  55  50 CALM      30.31S
WATFORD CITY   FAIR      79  50  36 N5        30.24F
$$

CITY           SKY/WX    TMP DP  RH WIND       PRES   REMARKS
GRAND FORKS    MOSUNNY   74  55  51 N10       30.22F
GRAND FORKS AF MOSUNNY   74  56  53 N10       30.24F
DEVILS LAKE    MOSUNNY   72  54  53 NW9       30.25F
FARGO          CLOUDY    74  51  44 N10       30.23F
CANDO          MOCLDY    72  50  46 N6        30.27F
CAVALIER       FAIR      73  54  49 NW9       30.23F
GRAFTON        MOCLDY    73  54  49 NW7       30.23F
GWINNER        CLOUDY    72  52  49 N8        30.28S
LANGDON        MOCLDY    73  48  40 NW7       30.26F
ROLLA            N/A     72  52  49 NW6       30.29F
WALHALLA       FAIR      73  54  49 NE8         N/A
$$

CITY           SKY/WX    TMP DP  RH WIND       PRES   REMARKS
ABERDEEN       CLOUDY    71  50  47 NE10      30.27F
MOBRIDGE       MOSUNNY   76  51  41 NE9       30.26F
BUFFALO          N/A     80  54  40 SE8       30.22F
RAPID CITY     SUNNY     80  56  43 SE9       30.27F
GLASGOW        SUNNY     88  43  20 VRB3      30.20F
SIDNEY         MOSUNNY   82  48  30 NE8       30.25F
WOLF POINT     PTSUNNY   87  47  24 VRB5      30.22F
GLENDIVE       SUNNY     82  48  30 NE8       30.25F
MILES CITY     SUNNY     90  43  19 NE10G17   30.21F
BAKER          SUNNY     85  47  26 VRB7      30.27F
$$

CITY           SKY/WX    TMP DP  RH WIND       PRES   REMARKS
BILLINGS       MOSUNNY   90  41  18 E9        30.21F
GREAT FALLS    MOSUNNY   89  39  17 VRB3      30.18F
REGINA         PTSUNNY   77  57  50 W6        30.25F
ESTEVAN        MOSUNNY   75  59  57 SE2       30.28F
$$



USA.gov is the U.S. government's official web portal to all federal, state and local government web resources and services.